Location: Kikino
(54.4440°N, 112.0940°W)
Time: 05:40:18
(UTC+00:00)

Transit 2A Rocket - Pass Details

Date: 26 May 2024
Orbit: 583 x 910 km, 66.7° (Epoch: 23 June)

Event Time Altitude Azimuth Distance (km) Brightness Sun altitude
Exits shadow 08:56:49 - 149° (SSE) 2,854 7.6 -11.8°
Reaches altitude 10° 09:00:13 10° 119° (ESE) 2,195 7.3 -11.6°
Maximum altitude 09:01:41 11° 101° (E) 2,144 7.5 -11.5°
Drops below altitude 10° 09:03:12 10° 84° (E) 2,266 7.8 -11.5°
Sets 09:07:32 0° 52° (NE) 3,294 9.5 -11.2°
